Location: Bougoudala
(13.2282°N, 4.9477°W)
Time: 10:30:53
(UTC+00:00)

Okean-O - Pass Details

Date: 29 January 2020
Orbit: 639 x 640 km, 98.2° (Epoch: 20 February)

Event Time Altitude Azimuth Distance (km) Brightness Sun altitude
Rises 18:50:08 0° 176° (S) 2,933 6.2 -8.0°
Reaches altitude 10° 18:52:21 10° 180° (S) 2,025 5.4 -8.6°
Maximum altitude 18:56:41 58° 259° (WSW) 747 3.4 -9.6°
Drops below altitude 10° 19:01:02 10° 338° (NNW) 2,025 5.3 -10.6°
Sets 19:03:16 0° 342° (NNW) 2,934 6.1 -11.1°
